Time,TemperatureF,DewpointF,PressureIn,WindDirection,WindDirectionDegrees,WindSpeedMPH,WindSpeedGustMPH,Humidity,HourlyPrecipIn,Conditions,Clouds,dailyrainin,SolarRadiationWatts/m^2,SoftwareType,DateUTC
2013-09-14 00:21:00,86.0,43.0,-100.00,SE,138,0.0,5.0,22,0.00,,,0.00,0.000000,,2013-09-14 07:21:00,
2013-09-14 00:34:00,86.0,43.0,-100.00,SE,138,0.0,5.0,22,0.00,,,0.00,0.000000,,2013-09-14 07:34:00,
2013-09-14 00:42:00,86.0,43.0,-100.00,SE,138,0.0,5.0,22,0.00,,,0.00,0.000000,,2013-09-14 07:42:00,
2013-09-14 00:52:00,84.0,45.0,-100.00,South,173,0.0,0.0,26,0.00,,,0.00,0.000000,,2013-09-14 07:52:00,
2013-09-14 01:21:00,84.0,45.0,-100.00,South,173,0.0,0.0,26,0.00,,,0.00,0.000000,,2013-09-14 08:21:00,
2013-09-14 01:32:00,84.0,45.0,-100.00,South,173,0.0,0.0,26,0.00,,,0.00,0.000000,,2013-09-14 08:32:00,
2013-09-14 01:42:00,84.0,45.0,-100.00,South,173,0.0,0.0,26,0.00,,,0.00,0.000000,,2013-09-14 08:42:00,
2013-09-14 01:52:00,83.0,44.0,-100.00,SSE,168,1.0,5.0,25,0.00,,,0.00,0.000000,,2013-09-14 08:52:00,
2013-09-14 02:21:00,83.0,44.0,-100.00,SSE,168,1.0,5.0,25,0.00,,,0.00,0.000000,,2013-09-14 09:21:00,
2013-09-14 02:33:00,83.0,44.0,-100.00,SSE,168,1.0,5.0,25,0.00,,,0.00,0.000000,,2013-09-14 09:33:00,
2013-09-14 02:43:00,83.0,44.0,-100.00,SSE,168,1.0,5.0,25,0.00,,,0.00,0.000000,,2013-09-14 09:43:00,
2013-09-14 02:52:00,82.0,41.0,-100.00,ESE,116,0.0,7.0,23,0.00,,,0.00,0.000000,,2013-09-14 09:52:00,
2013-09-14 03:23:00,82.0,41.0,-100.00,ESE,116,0.0,7.0,23,0.00,,,0.00,0.000000,,2013-09-14 10:23:00,
2013-09-14 03:32:00,82.0,41.0,-100.00,ESE,116,0.0,7.0,23,0.00,,,0.00,0.000000,,2013-09-14 10:32:00,
2013-09-14 03:42:00,82.0,41.0,-100.00,ESE,116,0.0,7.0,23,0.00,,,0.00,0.000000,,2013-09-14 10:42:00,
2013-09-14 03:52:00,83.0,38.0,-100.00,SW,233,0.0,4.0,20,0.00,,,0.00,0.000000,,2013-09-14 10:52:00,
2013-09-14 04:22:00,83.0,38.0,-100.00,SW,233,0.0,4.0,20,0.00,,,0.00,0.000000,,2013-09-14 11:22:00,
2013-09-14 04:33:00,83.0,38.0,-100.00,SW,233,0.0,4.0,20,0.00,,,0.00,0.000000,,2013-09-14 11:33:00,
2013-09-14 04:42:00,83.0,38.0,-100.00,SW,233,0.0,4.0,20,0.00,,,0.00,0.000000,,2013-09-14 11:42:00,
2013-09-14 04:52:00,83.0,40.0,-100.00,West,264,0.0,4.0,22,0.00,,,0.00,0.000000,,2013-09-14 11:52:00,
2013-09-14 05:22:00,83.0,40.0,-100.00,West,264,0.0,4.0,22,0.00,,,0.00,0.000000,,2013-09-14 12:22:00,
2013-09-14 05:31:00,83.0,40.0,-100.00,West,264,0.0,4.0,22,0.00,,,0.00,0.000000,,2013-09-14 12:31:00,
2013-09-14 05:42:00,83.0,40.0,-100.00,West,264,0.0,4.0,22,0.00,,,0.00,0.000000,,2013-09-14 12:42:00,
2013-09-14 05:52:00,83.0,39.0,-100.00,SSW,199,2.0,4.0,21,0.00,,,0.00,0.000000,,2013-09-14 12:52:00,
2013-09-14 06:21:00,83.0,39.0,-100.00,SSW,199,2.0,4.0,21,0.00,,,0.00,0.000000,,2013-09-14 13:21:00,
2013-09-14 06:32:00,83.0,39.0,-100.00,SSW,199,2.0,4.0,21,0.00,,,0.00,0.000000,,2013-09-14 13:32:00,
2013-09-14 06:42:00,83.0,39.0,-100.00,SSW,199,2.0,4.0,21,0.00,,,0.00,0.000000,,2013-09-14 13:42:00,
2013-09-14 06:52:00,82.0,37.0,-100.00,WNW,287,0.0,4.0,20,0.00,,,0.00,5.000000,,2013-09-14 13:52:00,
2013-09-14 07:22:00,82.0,37.0,-100.00,WNW,287,0.0,4.0,20,0.00,,,0.00,5.000000,,2013-09-14 14:22:00,
2013-09-14 07:32:00,82.0,37.0,-100.00,WNW,287,0.0,4.0,20,0.00,,,0.00,5.000000,,2013-09-14 14:32:00,
2013-09-14 07:42:00,82.0,37.0,-100.00,WNW,287,0.0,4.0,20,0.00,,,0.00,5.000000,,2013-09-14 14:42:00,
2013-09-14 07:52:00,90.0,41.0,-100.00,East,91,0.0,3.0,18,0.00,,,0.00,149.000000,,2013-09-14 14:52:00,
2013-09-14 08:22:00,90.0,41.0,-100.00,East,91,0.0,3.0,18,0.00,,,0.00,149.000000,,2013-09-14 15:22:00,
2013-09-14 08:33:00,90.0,41.0,-100.00,East,91,0.0,3.0,18,0.00,,,0.00,149.000000,,2013-09-14 15:33:00,
2013-09-14 08:43:00,90.0,41.0,-100.00,East,91,0.0,3.0,18,0.00,,,0.00,149.000000,,2013-09-14 15:43:00,
2013-09-14 08:52:00,94.0,45.0,-100.00,East,93,0.0,2.0,19,0.00,,,0.00,390.000000,,2013-09-14 15:52:00,
2013-09-14 09:23:00,94.0,45.0,-100.00,East,93,0.0,2.0,19,0.00,,,0.00,390.000000,,2013-09-14 16:23:00,
2013-09-14 09:33:00,94.0,45.0,-100.00,East,93,0.0,2.0,19,0.00,,,0.00,390.000000,,2013-09-14 16:33:00,
2013-09-14 09:44:00,94.0,45.0,-100.00,East,93,0.0,2.0,19,0.00,,,0.00,390.000000,,2013-09-14 16:44:00,
2013-09-14 09:52:00,102.0,40.0,-100.00,ENE,76,1.0,5.0,12,0.00,,,0.00,633.000000,,2013-09-14 16:52:00,
2013-09-14 10:43:00,102.0,40.0,-100.00,ENE,76,1.0,5.0,12,0.00,,,0.00,633.000000,,2013-09-14 17:43:00,
2013-09-14 10:52:00,104.0,37.0,-100.00,ENE,68,3.0,6.0,10,0.00,,,0.00,843.000000,,2013-09-14 17:52:00,
2013-09-14 11:22:00,104.0,37.0,-100.00,ENE,68,3.0,6.0,10,0.00,,,0.00,843.000000,,2013-09-14 18:22:00,
2013-09-14 11:32:00,104.0,37.0,-100.00,ENE,68,3.0,6.0,10,0.00,,,0.00,843.000000,,2013-09-14 18:32:00,
2013-09-14 11:43:00,104.0,37.0,-100.00,ENE,68,3.0,6.0,10,0.00,,,0.00,843.000000,,2013-09-14 18:43:00,
2013-09-14 11:52:00,106.0,35.0,-100.00,ENE,68,3.0,8.0,9,0.00,,,0.00,982.000000,,2013-09-14 18:52:00,
2013-09-14 12:22:00,106.0,35.0,-100.00,ENE,68,3.0,8.0,9,0.00,,,0.00,982.000000,,2013-09-14 19:22:00,
2013-09-14 12:32:00,106.0,35.0,-100.00,ENE,68,3.0,8.0,9,0.00,,,0.00,982.000000,,2013-09-14 19:32:00,
2013-09-14 12:42:00,106.0,35.0,-100.00,ENE,68,3.0,8.0,9,0.00,,,0.00,982.000000,,2013-09-14 19:42:00,
2013-09-14 12:52:00,107.0,33.0,-100.00,ESE,112,5.0,11.0,8,0.00,,,0.00,1047.000000,,2013-09-14 19:52:00,
2013-09-14 13:22:00,107.0,33.0,-100.00,ESE,112,5.0,11.0,8,0.00,,,0.00,1047.000000,,2013-09-14 20:22:00,
2013-09-14 13:32:00,107.0,33.0,-100.00,ESE,112,5.0,11.0,8,0.00,,,0.00,1047.000000,,2013-09-14 20:32:00,
2013-09-14 13:42:00,107.0,33.0,-100.00,ESE,112,5.0,11.0,8,0.00,,,0.00,1047.000000,,2013-09-14 20:42:00,
2013-09-14 13:52:00,108.0,34.0,-100.00,SE,124,5.0,14.0,8,0.00,,,0.00,1031.000000,,2013-09-14 20:52:00,
2013-09-14 14:22:00,108.0,34.0,-100.00,SE,124,5.0,14.0,8,0.00,,,0.00,1031.000000,,2013-09-14 21:22:00,
2013-09-14 14:33:00,108.0,34.0,-100.00,SE,124,5.0,14.0,8,0.00,,,0.00,1031.000000,,2013-09-14 21:33:00,
2013-09-14 14:44:00,108.0,34.0,-100.00,SE,124,5.0,14.0,8,0.00,,,0.00,1031.000000,,2013-09-14 21:44:00,
2013-09-14 14:52:00,110.0,35.0,-100.00,ESE,104,4.0,14.0,8,0.00,,,0.00,936.000000,,2013-09-14 21:52:00,
2013-09-14 15:24:00,110.0,35.0,-100.00,ESE,104,4.0,14.0,8,0.00,,,0.00,936.000000,,2013-09-14 22:24:00,
2013-09-14 15:34:00,110.0,35.0,-100.00,ESE,104,4.0,14.0,8,0.00,,,0.00,936.000000,,2013-09-14 22:34:00,
2013-09-14 15:42:00,110.0,35.0,-100.00,ESE,104,4.0,14.0,8,0.00,,,0.00,936.000000,,2013-09-14 22:42:00,
2013-09-14 15:52:00,107.0,36.0,-100.00,East,95,7.0,13.0,9,0.00,,,0.00,767.000000,,2013-09-14 22:52:00,
2013-09-14 16:23:00,107.0,36.0,-100.00,East,95,7.0,13.0,9,0.00,,,0.00,767.000000,,2013-09-14 23:23:00,
2013-09-14 16:34:00,107.0,36.0,-100.00,East,95,7.0,13.0,9,0.00,,,0.00,767.000000,,2013-09-14 23:34:00,
2013-09-14 16:42:00,107.0,36.0,-100.00,East,95,7.0,13.0,9,0.00,,,0.00,767.000000,,2013-09-14 23:42:00,
2013-09-14 16:52:00,106.0,35.0,-100.00,ESE,103,6.0,12.0,9,0.00,,,0.00,549.000000,,2013-09-14 23:52:00,
2013-09-14 17:22:00,106.0,35.0,-100.00,ESE,103,6.0,12.0,9,0.00,,,0.00,549.000000,,2013-09-15 00:22:00,
2013-09-14 17:32:00,106.0,35.0,-100.00,ESE,103,6.0,12.0,9,0.00,,,0.00,549.000000,,2013-09-15 00:32:00,
2013-09-14 17:42:00,106.0,35.0,-100.00,ESE,103,6.0,12.0,9,0.00,,,0.00,549.000000,,2013-09-15 00:42:00,
2013-09-14 17:52:00,104.0,39.0,-100.00,ESE,107,4.0,10.0,11,0.00,,,0.00,293.000000,,2013-09-15 00:52:00,
2013-09-14 18:22:00,104.0,39.0,-100.00,ESE,107,4.0,10.0,11,0.00,,,0.00,293.000000,,2013-09-15 01:22:00,
2013-09-14 18:32:00,104.0,39.0,-100.00,ESE,107,4.0,10.0,11,0.00,,,0.00,293.000000,,2013-09-15 01:32:00,
2013-09-14 18:42:00,104.0,39.0,-100.00,ESE,107,4.0,10.0,11,0.00,,,0.00,293.000000,,2013-09-15 01:42:00,
2013-09-14 18:52:00,100.0,40.0,-100.00,ESE,119,0.0,10.0,13,0.00,,,0.00,31.000000,,2013-09-15 01:52:00,
2013-09-14 19:22:00,100.0,40.0,-100.00,ESE,119,0.0,10.0,13,0.00,,,0.00,31.000000,,2013-09-15 02:22:00,
2013-09-14 19:32:00,100.0,40.0,-100.00,ESE,119,0.0,10.0,13,0.00,,,0.00,31.000000,,2013-09-15 02:32:00,
2013-09-14 19:42:00,100.0,40.0,-100.00,ESE,119,0.0,10.0,13,0.00,,,0.00,31.000000,,2013-09-15 02:42:00,
2013-09-14 19:52:00,97.0,40.0,-100.00,WNW,292,6.0,8.0,14,0.00,,,0.00,0.000000,,2013-09-15 02:52:00,
2013-09-14 20:22:00,97.0,40.0,-100.00,WNW,292,6.0,8.0,14,0.00,,,0.00,0.000000,,2013-09-15 03:22:00,
2013-09-14 20:34:00,97.0,40.0,-100.00,WNW,292,6.0,8.0,14,0.00,,,0.00,0.000000,,2013-09-15 03:34:00,
2013-09-14 20:44:00,97.0,40.0,-100.00,WNW,292,6.0,8.0,14,0.00,,,0.00,0.000000,,2013-09-15 03:44:00,
2013-09-14 20:52:00,97.0,40.0,-100.00,SSW,198,1.0,7.0,14,0.00,,,0.00,0.000000,,2013-09-15 03:52:00,
2013-09-14 21:24:00,97.0,40.0,-100.00,SSW,198,1.0,7.0,14,0.00,,,0.00,0.000000,,2013-09-15 04:24:00,
2013-09-14 21:33:00,97.0,40.0,-100.00,SSW,198,1.0,7.0,14,0.00,,,0.00,0.000000,,2013-09-15 04:33:00,
2013-09-14 21:43:00,97.0,40.0,-100.00,SSW,198,1.0,7.0,14,0.00,,,0.00,0.000000,,2013-09-15 04:43:00,
2013-09-14 21:52:00,98.0,41.0,-100.00,SSW,195,1.0,10.0,14,0.00,,,0.00,0.000000,,2013-09-15 04:52:00,
2013-09-14 22:22:00,98.0,41.0,-100.00,SSW,195,1.0,10.0,14,0.00,,,0.00,0.000000,,2013-09-15 05:22:00,
2013-09-14 22:34:00,98.0,41.0,-100.00,SSW,195,1.0,10.0,14,0.00,,,0.00,0.000000,,2013-09-15 05:34:00,
2013-09-14 22:42:00,98.0,41.0,-100.00,SSW,195,1.0,10.0,14,0.00,,,0.00,0.000000,,2013-09-15 05:42:00,
2013-09-14 22:52:00,92.0,39.0,-100.00,SSW,207,0.0,4.0,16,0.00,,,0.00,0.000000,,2013-09-15 05:52:00,
2013-09-14 23:21:00,92.0,39.0,-100.00,SSW,207,0.0,4.0,16,0.00,,,0.00,0.000000,,2013-09-15 06:21:00,
2013-09-14 23:32:00,92.0,39.0,-100.00,SSW,207,0.0,4.0,16,0.00,,,0.00,0.000000,,2013-09-15 06:32:00,
2013-09-14 23:42:00,92.0,39.0,-100.00,SSW,207,0.0,4.0,16,0.00,,,0.00,0.000000,,2013-09-15 06:42:00,
2013-09-14 23:52:00,90.0,42.0,-100.00,WSW,242,2.0,5.0,19,0.00,,,-99.99,0.000000,,2013-09-15 06:52:00,